Location: Unspecified
(0.0000°N, 0.0000°E)
Time: 03:33:04
(UTC+00:00)

Envisat - Pass Details

Date: 17 June 2023
Orbit: 763 x 764 km, 98.2° (Epoch: 02 October)

Event Time Altitude Azimuth Distance (km) Brightness Sun altitude
Rises 03:53:14 0° 358° (N) 3,212 6.5 -29.0°
Reaches altitude 10° 03:55:39 10° 350° (N) 2,289 5.6 -28.5°
Enters shadow 03:57:40 22° 336° (NNW) 1,599 4.6 -28.0°
